GW0719 Weather Reports


Display with metric or nautical units.
time (UTC)temp
F
wind
direction
speed
MPH
gust
MPH
rain 1hr
in
rain 24hr
in
rain mn
in
humidity
%
barometer
mb
20260505165930 42 10 1.0 5.0 0.00 0.00 0.00 10 1021.3
20260505165426 44 27 1.0 3.0 0.00 0.00 0.00 10 1021.4
20260505164922 42 12 0.0 0.0 0.00 0.00 0.00 10 1021.2
20260505164419 41 15 1.0 3.0 0.00 0.00 0.00 10 1021.1
20260505163917 42 352 0.0 0.0 0.00 0.00 0.00 10 1021.1
20260505163415 43 7 1.0 2.0 0.00 0.00 0.00 10 1021.6
20260505162914 42 10 0.0 0.0 0.00 0.00 0.00 10 1021.2
20260505162409 42 38 0.0 0.0 0.00 0.00 0.00 10 1021.2
20260505161907 40 2 0.0 1.0 0.00 0.00 0.00 10 1021.6
20260505161403 40 11 0.0 0.0 0.00 0.00 0.00 10 1021.2
20260505160901 41 3 0.0 2.0 0.00 0.00 0.00 10 1021.3
20260505160359 40 2 0.0 1.0 0.00 0.00 0.00 10 1021.2
20260505153337 40 355 0.0 0.0 0.00 0.00 0.00 10 1021.6
20260505152834 40 43 0.0 1.0 0.00 0.00 0.00 10 1021.4
20260505152331 39 13 0.0 0.0 0.00 0.00 0.00 10 1021.4
20260505151826 40 41 0.0 1.0 0.00 0.00 0.00 10 1021.6
20260505151323 39 43 0.0 0.0 0.00 0.00 0.00 10 1021.8
20260505150819 39 17 0.0 1.0 0.00 0.00 0.00 10 1021.6
20260505150316 38 18 0.0 0.0 0.00 0.00 0.00 10 1021.6
20260505140241 36 26 0.0 0.0 0.00 0.00 0.00 10 1021.8
20260505130205 33 41 0.0 0.0 0.00 0.00 0.00 10 1020.8
20260505124655 31 47 0.0 0.0 0.00 0.00 0.00 10 1020.8
20260505124151 30 25 0.0 0.0 0.00 0.00 0.00 10 1020.6
20260505123647 29 39 0.0 0.0 0.00 0.00 0.00 10 1020.6
20260505123144 29 30 0.0 0.0 0.00 0.00 0.00 10 1020.6
20260505122641 29 34 0.0 0.0 0.00 0.00 0.00 10 1020.5
20260505122138 28 37 0.0 0.0 0.00 0.00 0.00 10 1020.5
20260505121634 28 31 0.0 0.0 0.00 0.00 0.00 10 1020.5
20260505121132 28 13 0.0 0.0 0.00 0.00 0.00 10 1020.3
20260505120627 28 6 0.0 0.0 0.00 0.00 0.00 10 1020.3
20260505120123 28 352 0.0 0.0 0.00 0.00 0.00 10 1020.5
20260505115618 28 347 0.0 0.0 0.00 0.00 0.00 10 1020.5
20260505115116 28 0 0.0 0.0 0.00 0.00 0.00 10 1020.5
20260505114612 28 13 0.0 0.0 0.00 0.00 0.00 10 1020.3
20260505114109 28 11 0.0 0.0 0.00 0.00 0.00 10 1020.1
20260505113605 27 352 0.0 0.0 0.00 0.00 0.00 10 1020.1
20260505113102 27 350 0.0 0.0 0.00 0.00 0.00 10 1020.2
20260505112558 28 3 0.0 0.0 0.00 0.00 0.00 10 1020.1
20260505112056 29 22 0.0 0.0 0.00 0.00 0.00 10 1020.0
20260505111550 29 34 0.0 0.0 0.00 0.00 0.00 10 1020.3
20260505111046 30 31 0.0 0.0 0.00 0.00 0.00 10 1020.2
20260505110543 31 33 0.0 0.0 0.00 0.00 0.00 10 1020.3
20260505102015 34 13 1.0 1.0 0.00 0.00 0.00 10 1020.2
20260505101514 34 22 0.0 0.0 0.00 0.00 0.00 10 1020.5
20260505101010 34 14 0.0 0.0 0.00 0.00 0.00 10 1020.2
20260505100507 34 12 0.0 0.0 0.00 0.00 0.00 10 1020.3
20260505100004 34 17 0.0 0.0 0.00 0.00 0.00 10 1020.3
20260505095500 34 25 0.0 0.0 0.00 0.00 0.00 10 1020.1
20260505094956 34 29 0.0 0.0 0.00 0.00 0.00 10 1020.2
20260505094453 34 15 0.0 0.0 0.00 0.00 0.00 10 1020.1
20260505093949 34 9 0.0 0.0 0.00 0.00 0.00 10 1020.0
20260505093446 34 17 0.0 0.0 0.00 0.00 0.00 10 1020.1
20260505092943 34 22 0.0 0.0 0.00 0.00 0.00 10 1019.9
20260505092441 33 15 0.0 0.0 0.00 0.00 0.00 10 1020.1
20260505091938 33 359 0.0 0.0 0.00 0.00 0.00 10 1020.1
20260505091435 33 10 0.0 0.0 0.00 0.00 0.00 10 1020.1
20260505090933 33 20 0.0 0.0 0.00 0.00 0.00 10 1020.0
20260505090431 33 23 0.0 0.0 0.00 0.00 0.00 10 1020.1
20260505085928 34 26 0.0 0.0 0.00 0.00 0.00 10 1020.0
20260505085426 34 15 0.0 0.0 0.00 0.00 0.00 10 1019.9
20260505084924 35 21 0.0 0.0 0.00 0.00 0.00 10 1020.0
20260505084422 34 27 0.0 0.0 0.00 0.00 0.00 10 1020.0
20260505083920 33 22 0.0 0.0 0.00 0.00 0.00 10 1020.1
20260505083417 33 5 0.0 0.0 0.00 0.00 0.00 10 1020.0
20260505082913 33 20 0.0 0.0 0.00 0.00 0.00 10 1019.8
20260505082409 33 18 0.0 0.0 0.00 0.00 0.00 10 1019.8
20260505081906 33 13 0.0 0.0 0.00 0.00 0.00 10 1019.8
20260505081403 33 25 0.0 0.0 0.00 0.00 0.00 10 1020.1
20260505080859 34 34 0.0 0.0 0.00 0.00 0.00 10 1019.9
20260505080355 34 23 0.0 0.0 0.00 0.00 0.00 10 1019.9
20260505075851 34 37 0.0 0.0 0.00 0.00 0.00 10 1020.0
20260505075348 35 43 0.0 0.0 0.00 0.00 0.00 10 1019.9
20260505074845 35 40 0.0 0.0 0.00 0.00 0.00 10 1019.9
20260505074342 35 39 0.0 0.0 0.00 0.00 0.00 10 1019.7
20260505073840 35 32 0.0 0.0 0.00 0.00 0.00 10 1019.8
20260505073338 37 31 0.0 0.0 0.00 0.00 0.00 10 1019.5
20260505072834 36 13 0.0 0.0 0.00 0.00 0.00 10 1019.7
20260505072330 35 332 0.0 0.0 0.00 0.00 0.00 10 1020.0
20260505071827 37 47 0.0 0.0 0.00 0.00 0.00 10 1019.7
20260505071323 37 52 0.0 0.0 0.00 0.00 0.00 10 1019.8
20260505070822 38 55 0.0 0.0 0.00 0.00 0.00 10 1019.7
20260505070318 37 51 0.0 0.0 0.00 0.00 0.00 10 1020.0
20260505065813 38 59 0.0 0.0 0.00 0.00 0.00 10 1019.9
20260505065310 38 59 0.0 0.0 0.00 0.00 0.00 10 1019.8
20260505064807 38 59 0.0 0.0 0.00 0.00 0.00 10 1019.7
20260505064304 38 47 0.0 0.0 0.00 0.00 0.00 10 1019.7
20260505063802 38 46 0.0 0.0 0.00 0.00 0.00 10 1020.1
20260505063258 38 48 0.0 0.0 0.00 0.00 0.00 10 1019.9
20260505062755 38 48 0.0 0.0 0.00 0.00 0.00 10 1020.0
20260505062252 38 48 0.0 0.0 0.00 0.00 0.00 10 1019.8
20260505061749 38 47 0.0 0.0 0.00 0.00 0.00 10 1019.6
20260505061247 38 47 0.0 0.0 0.00 0.00 0.00 10 1019.9
20260505060744 38 46 0.0 0.0 0.00 0.00 0.00 10 1019.7
20260505060241 38 334 0.0 0.0 0.00 0.00 0.00 10 1019.5
20260505055736 38 37 0.0 0.0 0.00 0.00 0.00 10 1019.7
20260505055233 39 38 0.0 0.0 0.00 0.00 0.00 10 1019.8
20260505054730 38 36 0.0 0.0 0.00 0.00 0.00 10 1019.6
20260505054228 38 354 0.0 0.0 0.00 0.00 0.00 10 1019.4
20260505053726 37 1 0.0 0.0 0.00 0.00 0.00 10 1019.5
20260505053222 35 353 0.0 0.0 0.00 0.00 0.00 10 1019.7
20260505052719 33 37 0.0 0.0 0.00 0.00 0.00 10 1019.7
20260505052216 33 19 0.0 0.0 0.00 0.00 0.00 10 1019.5
20260505051713 33 27 0.0 0.0 0.00 0.00 0.00 10 1019.5
20260505051211 34 39 0.0 0.0 0.00 0.00 0.00 10 1019.4
20260505050709 33 24 0.0 0.0 0.00 0.00 0.00 10 1019.2
20260505050207 33 17 0.0 0.0 0.00 0.00 0.00 10 1019.5
20260505041637 37 47 0.0 0.0 0.00 0.00 0.00 10 1019.2
20260505041134 39 50 0.0 0.0 0.00 0.00 0.00 10 1019.1
20260505040631 39 49 0.0 0.0 0.00 0.00 0.00 10 1019.2
20260505040128 40 50 0.0 0.0 0.00 0.00 0.00 10 1019.2
20260505035624 39 50 0.0 0.0 0.00 0.00 0.00 10 1019.1
20260505035120 40 51 0.0 0.0 0.00 0.00 0.00 10 1019.1
20260505034617 40 60 0.0 0.0 0.00 0.00 0.00 10 1019.2
20260505034114 40 74 0.0 0.0 0.00 0.00 0.00 10 1018.9
20260505033611 40 97 0.0 0.0 0.00 0.00 0.00 10 1018.6
20260505033110 40 105 0.0 0.0 0.00 0.00 0.00 10 1018.8
20260505032607 40 105 0.0 0.0 0.00 0.00 0.00 10 1018.7
20260505032103 41 98 0.0 0.0 0.00 0.00 0.00 10 1018.5
20260505031601 41 90 0.0 0.0 0.00 0.00 0.00 10 1018.9
20260505031057 41 79 0.0 0.0 0.00 0.00 0.00 10 1018.8
20260505030554 42 73 0.0 0.0 0.00 0.00 0.00 10 1018.7
20260505030050 42 60 0.0 0.0 0.00 0.00 0.00 10 1018.5
20260505025545 42 71 0.0 0.0 0.00 0.00 0.00 10 1018.4
20260505025045 42 59 0.0 0.0 0.00 0.00 0.00 10 1018.4
20260505024541 42 50 0.0 0.0 0.00 0.00 0.00 10 1018.1
20260505024038 43 61 0.0 0.0 0.00 0.00 0.00 10 1018.5
20260505023535 44 63 0.0 0.0 0.00 0.00 0.00 10 1018.1
20260505023033 44 56 0.0 0.0 0.00 0.00 0.00 10 1018.1
20260505022531 45 41 0.0 0.0 0.00 0.00 0.00 10 1017.9
20260505022028 45 54 0.0 0.0 0.00 0.00 0.00 10 1018.1
20260505021524 46 42 0.0 1.0 0.00 0.00 0.00 10 1017.7
20260505021021 46 53 0.0 1.0 0.00 0.00 0.00 10 1017.9
20260505020520 47 33 0.0 1.0 0.00 0.00 0.00 10 1017.8
20260505020018 47 34 0.0 1.0 0.00 0.00 0.00 10 1017.9
20260505015515 48 36 0.0 1.0 0.00 0.00 0.00 10 1017.6
20260505015012 48 53 0.0 1.0 0.00 0.00 0.00 10 1017.6
20260505014509 49 40 1.0 2.0 0.00 0.00 0.00 10 1017.4
20260505014006 49 39 0.0 2.0 0.00 0.00 0.00 10 1017.3
20260505013503 49 40 0.0 2.0 0.00 0.00 0.00 10 1017.5
20260505013000 50 46 0.0 3.0 0.00 0.00 0.00 10 1017.2
20260505012458 50 35 0.0 2.0 0.00 0.00 0.00 10 1016.9
20260505011955 51 28 1.0 1.0 0.00 0.00 0.00 10 1016.9
20260505011451 51 24 0.0 5.0 0.00 0.00 0.00 10 1017.0
20260505010948 51 27 0.0 0.0 0.00 0.00 0.00 10 1016.8
20260505010443 51 18 0.0 3.0 0.00 0.00 0.00 10 1016.9
20260505005939 51 37 0.0 3.0 0.00 0.00 0.00 10 1017.0
20260505005436 52 11 0.0 3.0 0.00 0.00 0.00 10 1017.0
20260505004934 52 17 0.0 2.0 0.00 0.00 0.00 10 1016.8
20260505004431 52 1 0.0 3.0 0.00 0.00 0.00 10 1016.6
20260505003928 52 10 0.0 3.0 0.00 0.00 0.00 10 1016.7
20260505003425 53 19 0.0 3.0 0.00 0.00 0.00 10 1016.9
20260505002921 52 24 0.0 2.0 0.00 0.00 0.00 10 1016.9
20260505002417 53 33 0.0 0.0 0.00 0.00 0.00 10 1016.8
20260505001916 53 26 0.0 6.0 0.00 0.00 0.00 10 1016.9
20260505001413 53 44 4.0 5.0 0.00 0.00 0.00 10 1016.7
20260505000910 54 18 1.0 5.0 0.00 0.00 0.00 10 1016.8
20260505000408 53 36 0.0 5.0 0.00 0.00 0.00 10 1016.8
20260504235904 54 40 3.0 3.0 0.00 0.00 0.00 10 1016.5
20260504235402 54 25 0.0 6.0 0.00 0.00 0.00 10 1016.7
20260504234857 54 10 0.0 6.0 0.00 0.00 0.00 10 1016.7
20260504234355 53 23 1.0 5.0 0.00 0.00 0.00 10 1016.6
20260504233852 54 7 3.0 6.0 0.00 0.00 0.00 10 1016.7
20260504233347 53 357 1.0 6.0 0.00 0.00 0.00 10 1016.6
20260504232844 53 347 0.0 0.0 0.00 0.00 0.00 10 1016.8
20260504232342 54 13 3.0 5.0 0.00 0.00 0.00 10 1016.7
20260504231838 54 359 18.0 26.0 0.00 0.00 0.00 10 1016.5
20260504231335 54 11 0.0 5.0 0.00 0.00 0.00 10 1016.6
20260504230831 53 15 0.0 6.0 0.00 0.00 0.00 10 1016.7
20260504230329 54 356 0.0 5.0 0.00 0.00 0.00 10 1016.6
20260504225827 54 3 2.0 6.0 0.00 0.00 0.00 10 1016.8
20260504225323 54 356 7.0 14.0 0.00 0.00 0.00 10 1016.7
20260504224821 54 5 18.0 26.0 0.00 0.00 0.00 10 1016.6
20260504224318 55 347 17.0 22.0 0.00 0.00 0.00 10 1016.5
20260504223815 54 33 0.0 3.0 0.00 0.00 0.00 10 1016.7
20260504223310 54 4 2.0 5.0 0.00 0.00 0.00 10 1016.7
20260504222807 54 359 2.0 5.0 0.00 0.00 0.00 10 1016.5
20260504222305 53 16 0.0 24.0 0.00 0.00 0.00 10 1016.3
20260504221802 54 358 9.0 13.0 0.00 0.00 0.00 10 1016.5
20260504221258 54 20 11.0 26.0 0.00 0.00 0.00 10 1016.7
20260504220755 55 14 0.0 5.0 0.00 0.00 0.00 10 1016.5
20260504220252 53 6 0.0 1.0 0.00 0.00 0.00 10 1016.6
20260504215749 53 13 2.0 5.0 0.00 0.00 0.00 10 1016.8
20260504215246 55 15 1.0 6.0 0.00 0.00 0.00 10 1016.6
20260504214742 54 25 0.0 1.0 0.00 0.00 0.00 10 1016.6
20260504214238 53 12 0.0 1.0 0.00 0.00 0.00 10 1016.8
20260504213735 53 24 1.0 2.0 0.00 0.00 0.00 10 1016.9
20260504213232 53 21 0.0 22.0 0.00 0.00 0.00 10 1016.7
20260504212729 53 11 0.0 1.0 0.00 0.00 0.00 10 1016.6
20260504212225 52 45 0.0 5.0 0.00 0.00 0.00 10 1017.0
20260504211723 54 9 0.0 2.0 0.00 0.00 0.00 10 1017.0
20260504211219 52 0 0.0 1.0 0.00 0.00 0.00 10 1017.2
20260504210717 53 21 1.0 5.0 0.00 0.00 0.00 10 1016.9
20260504210214 53 13 0.0 5.0 0.00 0.00 0.00 10 1017.2
20260504205710 53 349 0.0 2.0 0.00 0.00 0.00 10 1017.0
20260504205208 53 0 19.0 26.0 0.00 0.00 0.00 10 1017.0
20260504204706 53 20 2.0 13.0 0.00 0.00 0.00 10 1017.2
20260504204205 52 42 2.0 5.0 0.00 0.00 0.00 10 1017.0
20260504203703 53 46 1.0 5.0 0.00 0.00 0.00 10 1017.3
20260504203201 53 3 1.0 3.0 0.00 0.00 0.00 10 1017.0
20260504202700 54 15 0.0 7.0 0.00 0.00 0.00 10 1017.0
20260504202158 54 3 0.0 3.0 0.00 0.00 0.00 10 1016.9
20260504201654 51 1 0.0 3.0 0.00 0.00 0.00 10 1017.0
20260504201152 53 12 0.0 2.0 0.00 0.00 0.00 10 1017.3
20260504200649 53 48 1.0 3.0 0.00 0.00 0.00 10 1016.9
20260504200146 54 10 1.0 5.0 0.00 0.00 0.00 10 1016.8
20260504195641 52 354 0.0 5.0 0.00 0.00 0.00 10 1017.0
20260504195138 51 17 0.0 6.0 0.00 0.00 0.00 10 1017.2
20260504194635 51 19 2.0 5.0 0.00 0.00 0.00 10 1017.0
20260504194131 52 1 1.0 2.0 0.00 0.00 0.00 10 1017.2
20260504193627 53 8 20.0 26.0 0.00 0.00 0.00 10 1017.2
20260504193126 51 7 0.0 5.0 0.00 0.00 0.00 10 1017.0
20260504192623 51 41 1.0 5.0 0.00 0.00 0.00 10 1017.0
20260504192121 51 3 3.0 5.0 0.00 0.00 0.00 10 1017.0
20260504191619 50 3 0.0 2.0 0.00 0.00 0.00 10 1017.2
20260504191115 51 359 0.0 5.0 0.00 0.00 0.00 10 1017.2
20260504190612 52 3 0.0 3.0 0.00 0.00 0.00 10 1017.3
20260504190108 51 356 0.0 2.0 0.00 0.00 0.00 10 1017.2
20260504185605 51 350 2.0 3.0 0.00 0.00 0.00 10 1016.9
20260504185101 51 23 0.0 1.0 0.00 0.00 0.00 10 1017.2
20260504184557 51 341 0.0 3.0 0.00 0.00 0.00 10 1017.4
20260504184052 51 9 0.0 5.0 0.00 0.00 0.00 10 1017.3
20260504183549 51 4 0.0 0.0 0.00 0.00 0.00 10 1017.2
20260504183048 52 23 0.0 1.0 0.00 0.00 0.00 10 1017.3
20260504182544 52 359 0.0 3.0 0.00 0.00 0.00 10 1017.4
20260504182042 52 52 0.0 2.0 0.00 0.00 0.00 10 1017.3
20260504181539 51 8 0.0 1.0 0.00 0.00 0.00 10 1017.5
20260504181037 51 6 1.0 2.0 0.00 0.00 0.00 10 1017.4
20260504180536 51 355 1.0 5.0 0.00 0.00 0.00 10 1017.6
20260504180034 51 27 0.0 5.0 0.00 0.00 0.00 10 1017.4
20260504175531 52 10 3.0 5.0 0.00 0.00 0.00 10 1017.3
20260504175028 52 2 0.0 3.0 0.00 0.00 0.00 10 1017.3
20260504174526 51 32 0.0 3.0 0.00 0.00 0.00 10 1017.4
20260504174022 51 357 3.0 6.0 0.00 0.00 0.00 10 1017.3
20260504173519 51 4 0.0 1.0 0.00 0.00 0.00 10 1017.3
20260504173017 51 6 1.0 3.0 0.00 0.00 0.00 10 1017.4
20260504172513 51 25 0.0 1.0 0.00 0.00 0.00 10 1017.3
20260504172009 50 352 0.0 2.0 0.00 0.00 0.00 10 1017.4
20260504171506 51 6 0.0 2.0 0.00 0.00 0.00 10 1017.5
20260504171003 51 355 0.0 1.0 0.00 0.00 0.00 10 1017.3
20260504170459 51 13 0.0 0.0 0.00 0.00 0.00 10 1017.4